Regional Weather Roundup
Issued by NWS

Home | Current Version | Previous Version | Graphics & Text | Print | Product List | Glossary On
Versions: 1 2 3 4 5 6 7 8 9 10 11 12 13 14 15 16 17 18 19 20 21 22 23 24 25 26 27 28
000
ASUS45 KTFX 221010
RWRMT
MONTANA REGIONAL WEATHER ROUNDUP
NATIONAL WEATHER SERVICE GREAT FALLS MT
400 AM MDT MON MAY 22 2017

NOTE: "FAIR" INDICATES FEW OR NO CLOUDS BELOW 12000 FEET WITH NO
SIGNIFICANT WEATHER AND/OR OBSTRUCTIONS TO VISIBILITY.

MTZ001>007-043-221100-
WEST OF THE DIVIDE

CITY           SKY/WX    TMP DP  RH WIND       PRES   REMARKS
KALISPELL      CLEAR     42  42 100 NE3       30.18S
MISSOULA       PTCLDY    45  40  82 CALM      30.24S
BUTTE          CLEAR     37  31  78 SE3       30.29S
MULLAN PASS    CLEAR     48  34  58 NW6       30.30S
ANACONDA         N/A     45  30  57 S8        30.26R
DEER LODGE       N/A     39  34  81 W3        30.28S
EUREKA           N/A     45  39  81 CALM      30.21R
HAMILTON         N/A     48  36  61 S7        30.25R
LIBBY            N/A     43  41  93 CALM      30.19S
RONAN            N/A     45  39  79 CALM      30.21F
$$

MTZ008-052>055-221100-
SOUTHWEST MONTANA

CITY           SKY/WX    TMP DP  RH WIND       PRES   REMARKS
BOZEMAN        CLOUDY    44  38  79 S7        30.23S
DILLON         CLEAR     45  32  60 SW10      30.26S
W YELLOWSTONE  CLOUDY    28  27  93 CALM      30.32S
ENNIS          CLEAR     36  32  87 CALM      30.31S
THREE FORKS      N/A     41  39  92 CALM      30.19S
$$

MTZ009-010-012-014-046-048-049-054-221100-
EAST SLOPES AND CENTRAL MONTANA

CITY           SKY/WX    TMP DP  RH WIND       PRES   REMARKS
CUT BANK       PTCLDY    45  36  70 W9        30.18F
GREAT FALLS    CLOUDY    49  42  77 CALM      30.18S
HELENA         PTCLDY    45  39  79 N5        30.19R
AUGUSTA        MOCLDY    50  38  64 N12       30.20R
BOWMANS CRNR     N/A     51  35  55 CALM      30.18R
CHOTEAU          N/A     46  37  71 N5        30.21R
FAIRFIELD        N/A     51  36  56 NE8       30.18S
POWER          MOCLDY    49  38  67 N7        30.17R
RAYNESFORD     MOCLDY    53  39  60 SE3       30.18F
ULM            MOCLDY    49  44  85 SW3       30.18R
$$

MTZ011-013-016-021-045-047-050-051-221100-
NORTH CENTRAL MONTANA

CITY           SKY/WX    TMP DP  RH WIND       PRES   REMARKS
HAVRE          CLOUDY    45  38  76 SW8       30.10S
LEWISTOWN      CLOUDY    47  38  71 SW10      30.14S
N BAR RANCH    MOCLDY    46  37  71 NW10      30.15S
CHINOOK          N/A     43  39  87 NW5       30.10R
DENTON         MOCLDY    50  38  65 W14       30.10S
GEYSER         MOCLDY    56  36  45 W14       30.15F
JUDITH GAP     MOCLDY    46  34  63 N8        30.15F
STANFORD       CLOUDY    53  35  49 W16       30.16F
WINIFRED       MOCLDY    50  40  69 W8        30.12S
$$

MTZ017>020-022>027-061-062-221100-
NORTHEAST MONTANA

CITY           SKY/WX    TMP DP  RH WIND       PRES   REMARKS
GLASGOW        LGT RAIN  48  43  82 NW9       30.05R
JORDAN           N/A     44  42  93 W7        30.04F
SIDNEY         PTCLDY    46  42  86 NW12      29.98S
WOLF POINT     CLEAR     45  40  82 W7        30.01S
MALTA          MOCLDY    43  41  93 W8        30.07R
PLENTYWOOD       N/A     45  39  81 NW6       29.99S
POPLAR           N/A     45  39  81 W6        30.01R
$$

MTZ028>42-056>058-221100-
SOUTHCENTRAL AND SOUTHEAST MONTANA

CITY           SKY/WX    TMP DP  RH WIND       PRES   REMARKS
BAKER          PTCLDY    44  42  93 W8        30.01F
BILLINGS       MOCLDY    54  39  57 SW9       30.11F
LIVINGSTON     CLOUDY    44  39  82 NW12      30.19F
MILES CITY     CLOUDY    48  44  86 SW7       30.03F
BIG TIMBER     MOCLDY    50  36  57 W17       30.18F
FORSYTH          N/A     48  46  93 SW7       30.05S
LAUREL           N/A     51  38  61 SW1       30.10F
ROUNDUP          N/A     47  37  68 W5        30.01S
$$

REGIONAL REPORTS...DAKOTAS

CITY           SKY/WX    TMP DP  RH WIND       PRES   REMARKS
WILLISTON      CLOUDY    52  39  61 N17       29.96S
MINOT          CLOUDY    46  39  76 CALM      29.92S
DICKINSON      CLOUDY    48  42  80 W12       29.93F
BEACH            N/A     41  41 100 W5        30.02F
TIOGA          MOCLDY    46  39  76 MISG      29.95S
WATFORD CITY   CLOUDY    50  41  71 NW12G17   29.94S
BISMARCK       MOCLDY    42  35  76 CALM      29.89S
GRAND FORKS    CLOUDY    46  44  93 W8        29.84S
FARGO          CLOUDY    43  41  93 W7        29.86F
BUFFALO SD       N/A     47  45  93 W10       29.94F
RAPID CITY     MOCLDY    44  37  76 CALM      30.00F
$$

REGIONAL REPORTS...WYOMING/IDAHO/WASHINGTON

CITY           SKY/WX    TMP DP  RH WIND       PRES   REMARKS
GILLETTE       CLOUDY    48  38  68 W9        30.11R
SHERIDAN       CLOUDY    49  39  68 CALM      30.11F
BUFFALO WY     CLOUDY    51  34  52 NW20G29   30.16R
CODY           CLOUDY    50  34  54 SW9       30.20F
YELLOWSTONE LA   N/A     27  25  92 CALM      30.36S
IDAHO FALLS    CLEAR     39  34  82 N6        30.26F
SALMON         CLEAR     39  36  87 CALM      30.27R
BOISE          PTCLDY    55  47  74 SE8       30.18S
SPOKANE        MOCLDY    60  43  53 S5        30.19R
$$

REGIONAL REPORTS...ALBERTA

CITY           SKY/WX    TMP DP  RH WIND       PRES   REMARKS
EDMONTON       CLEAR     54  39  58 E5        30.14S
CALGARY        MOCLDY    55  37  50 SW3       30.17S
LETHBRIDGE     MOCLDY    50  37  62 SW13      30.15R
MEDICINE HAT   CLOUDY    61  37  41 W10       30.10S
WATERTON GATE    N/A     41  32  70 SW7         N/A
CARDSTON         N/A     46  36  66 SW8         N/A
MILK RIVER       N/A     50  39  66 W14         N/A
$$

REGIONAL REPORTS...SASKATCHEWAN

CITY           SKY/WX    TMP DP  RH WIND       PRES   REMARKS
SWIFT CURRENT  CLEAR     43  37  81 W8        30.08R
REGINA         MOCLDY    45  41  87 N10       30.01R
SASKATOON      PTCLDY    37  37 100 NW8       30.10R WCI  31
CYPRESS HILLS    N/A     43  30  61 NW3         N/A
VAL MARIE        N/A     43  39  87 S2          N/A
ROCKGLEN         N/A     45  39  81 N12         N/A
ASSINIBOIA       N/A     45  39  81 S2          N/A
$$




USA.gov is the U.S. government's official web portal to all federal, state and local government web resources and services.